Le nostre stazioni meteo in Italia

Pubblicità
Il mio iltempo24.it
Monte Scuro, Italia (16344): Temperatura & dewpoint: 15.06.2019 00:00:00 - 21.06.2019 00:00:00 (CEST)Monte Scuro, Italia (16344): velocità del vento: 15.06.2019 00:00:00 - 21.06.2019 00:00:00 (CEST)Monte Scuro, Italia (16344): direzione del vento: 15.06.2019 00:00:00 - 21.06.2019 00:00:00 (CEST)Monte Scuro, Italia (16344): reduced air pressure: 15.06.2019 00:00:00 - 21.06.2019 00:00:00 (CEST)Monte Scuro, Italia (16344): visibility: 15.06.2019 00:00:00 - 21.06.2019 00:00:00 (CEST)Monte Scuro, Italia (16344): ore di luce: 15.06.2019 00:00:00 - 21.06.2019 00:00:00 (CEST)
Data & Tempo tt [°C] td [°C] ff [km/h] ff [kn] dd ppp [hPa] vv [km] sd [min]
21.06.2019 00:00:00 16,8 6,3 9 5 O - 10 -
20.06.2019 23:00:00 18,0 3,5 11 6 O - 10 -
20.06.2019 22:00:00 17,6 2,4 9 5 O - 10 -
20.06.2019 21:00:00 18,0 7,7 18 10 O - 15 -
20.06.2019 20:00:00 19,4 17,4 13 7 O - 25 30
20.06.2019 19:00:00 20,0 14,4 15 8 O - 25 60
20.06.2019 18:00:00 20,0 19,2 13 7 O - 25 60
20.06.2019 17:00:00 20,8 20,0 15 8 O - 25 60
20.06.2019 16:00:00 19,8 -30,0 11 6 O - 25 42
20.06.2019 15:00:00 19,4 19,4 15 8 O - 20 48
20.06.2019 14:00:00 20,4 17,8 15 8 O - 25 -
20.06.2019 13:00:00 20,0 17,4 18 10 O - 25 60
20.06.2019 12:00:00 20,0 17,2 13 7 O - 25 60
20.06.2019 11:00:00 19,0 17,3 8 4 O - 25 60
20.06.2019 10:00:00 18,4 15,5 16 9 O - 20 60
20.06.2019 09:00:00 19,0 15,5 15 8 O - 20 60
20.06.2019 08:00:00 19,4 14,4 18 10 O - 20 60
20.06.2019 07:00:00 18,2 15,3 24 13 O - 20 -
20.06.2019 06:00:00 16,0 13,5 24 13 OSO - 20 -
20.06.2019 05:00:00 16,0 13,3 18 10 N - 10 -
20.06.2019 04:00:00 16,0 11,6 29 16 O - 10 -
20.06.2019 03:00:00 16,2 11,8 24 13 O - 10 -
20.06.2019 02:00:00 16,6 8,1 31 17 ONO - 10 -
20.06.2019 01:00:00 16,6 -1,0 29 16 O - 10 -
20.06.2019 00:00:00 16,6 -6,4 26 14 O - 75 -
19.06.2019 23:00:00 16,8 -0,9 26 14 O - 10 -
19.06.2019 22:00:00 17,0 -16,1 28 15 O - 15 -
19.06.2019 21:00:00 17,0 -3,2 29 16 O - 15 -
19.06.2019 20:00:00 18,0 14,7 24 13 O - 15 60
19.06.2019 19:00:00 18,0 13,7 21 11 O - 15 60
19.06.2019 18:00:00 18,0 17,5 28 15 O - 15 60
19.06.2019 17:00:00 18,2 16,5 26 14 O - 15 36
19.06.2019 16:00:00 18,4 18,4 15 8 O - 20 54
19.06.2019 15:00:00 20,0 18,1 13 7 O - 20 60
19.06.2019 14:00:00 20,2 15,8 16 9 O - 20 60
19.06.2019 13:00:00 20,0 14,8 16 9 O - 20 60
19.06.2019 12:00:00 19,4 15,3 18 10 OSO - 20 60
19.06.2019 11:00:00 18,0 15,1 21 11 O - 20 60
19.06.2019 10:00:00 18,8 15,3 8 4 ONO - 20 60
19.06.2019 09:00:00 19,2 13,2 16 9 O - 20 60
19.06.2019 08:00:00 19,0 11,8 8 4 NO - 20 60
19.06.2019 07:00:00 18,6 10,2 16 9 ONO - 15 -
19.06.2019 06:00:00 15,4 10,2 9 5 NO - 15 -
19.06.2019 05:00:00 15,4 8,2 4 2 O - 15 -
19.06.2019 04:00:00 15,2 8,2 0 0 N - 15 -
19.06.2019 03:00:00 15,2 10,6 5 3 O - 15 -
19.06.2019 02:00:00 15,4 11,0 0 0 N - 15 -
19.06.2019 01:00:00 15,4 15,1 0 0 N - 15 -
19.06.2019 00:00:00 15,4 15,1 0 0 N - 15 -
18.06.2019 23:00:00 16,0 12,7 0 0 N - 15 -
18.06.2019 22:00:00 16,8 13,3 9 5 ONO - 15 -
18.06.2019 21:00:00 16,4 10,9 0 0 N - 15 -
18.06.2019 20:00:00 17,4 17,1 21 11 SO - 15 18
18.06.2019 19:00:00 18,4 17,9 0 0 N - 15 0
18.06.2019 18:00:00 18,0 17,8 11 6 O - 15 0
18.06.2019 17:00:00 18,4 18,1 9 5 OSO - 15 12
18.06.2019 16:00:00 20,4 19,4 22 12 OSO - 20 24
18.06.2019 15:00:00 20,8 18,7 24 13 O - 20 60
18.06.2019 14:00:00 20,2 18,0 18 10 O - 20 60
18.06.2019 13:00:00 19,8 17,0 15 8 SO - 20 60
18.06.2019 12:00:00 19,4 17,7 9 5 OSO - 20 60
18.06.2019 11:00:00 20,0 16,4 8 4 OSO - 20 60
18.06.2019 10:00:00 20,2 13,4 5 3 O - 20 60
18.06.2019 09:00:00 21,4 10,0 4 2 OSO - 20 60
18.06.2019 08:00:00 21,4 12,5 4 2 ESE - 20 60
18.06.2019 07:00:00 19,8 13,0 5 3 SE - 20 48
18.06.2019 06:00:00 16,2 13,1 5 3 SE - 15 -
18.06.2019 05:00:00 16,0 13,7 5 3 SE - 10 -
18.06.2019 04:00:00 16,2 15,7 4 2 NE - 10 -
18.06.2019 03:00:00 16,2 14,6 8 4 NE - 10 -
18.06.2019 02:00:00 16,2 14,6 8 4 NE - 10 -
18.06.2019 01:00:00 16,8 14,3 8 4 NE - 10 -
18.06.2019 00:00:00 16,8 14,4 9 5 NE - 10 -
17.06.2019 23:00:00 17,2 12,3 8 4 NE - 10 -
17.06.2019 22:00:00 18,0 10,4 4 2 NNE - 10 -
17.06.2019 21:00:00 19,0 5,1 4 2 O - 15 -
17.06.2019 20:00:00 19,4 1,4 8 4 O - 15 30
17.06.2019 19:00:00 20,0 12,2 4 2 O - 15 60
17.06.2019 18:00:00 21,0 13,0 4 2 O - 15 60
17.06.2019 17:00:00 21,4 15,9 4 2 O - 15 60
17.06.2019 16:00:00 21,6 14,7 8 4 O - 20 60
17.06.2019 15:00:00 21,0 14,2 8 4 O - 20 60
17.06.2019 14:00:00 22,0 12,0 4 2 O - 20 60
17.06.2019 13:00:00 21,6 8,8 4 2 O - 20 60
17.06.2019 12:00:00 21,6 9,8 5 3 O - 20 60
17.06.2019 11:00:00 20,4 5,2 5 3 O - 20 60
17.06.2019 10:00:00 22,0 -3,4 11 6 O - 20 60
17.06.2019 09:00:00 22,0 -11,0 13 7 O - 20 60
17.06.2019 08:00:00 22,0 -7,7 9 5 O - 20 60
17.06.2019 07:00:00 20,0 -2,4 9 5 O - 20 -
17.06.2019 06:00:00 18,0 -9,0 8 4 O - 20 -
17.06.2019 05:00:00 17,4 -11,3 9 5 O - 10 -
17.06.2019 04:00:00 18,0 -9,9 9 5 O - 10 -
17.06.2019 03:00:00 17,8 -9,2 8 4 O - 10 -
17.06.2019 02:00:00 17,8 5,7 9 5 O - 10 -
17.06.2019 01:00:00 17,8 7,3 15 8 O - 10 -
17.06.2019 00:00:00 17,8 4,0 15 8 O - 10 -
16.06.2019 23:00:00 18,2 2,1 15 8 O - 10 -
16.06.2019 22:00:00 - 0,0 18 10 O 1000,0 - -
16.06.2019 21:00:00 18,4 -2,0 18 10 O - 10 -
16.06.2019 20:00:00 20,4 12,1 13 7 O - 10 60
16.06.2019 19:00:00 20,6 11,5 16 9 O - 20 60
16.06.2019 18:00:00 21,0 17,4 15 8 O - 20 60
16.06.2019 17:00:00 22,0 12,6 9 5 O - 20 60
16.06.2019 16:00:00 22,2 17,6 9 5 O - 20 60
16.06.2019 15:00:00 22,0 15,6 9 5 O - 20 60
16.06.2019 14:00:00 22,2 11,3 9 5 O - 20 60
16.06.2019 13:00:00 22,0 12,8 8 4 O - 20 60
16.06.2019 12:00:00 21,4 9,3 9 5 O - 20 60
16.06.2019 11:00:00 21,0 13,0 8 4 O - 20 60
16.06.2019 10:00:00 21,0 10,2 8 4 O - 20 60
16.06.2019 09:00:00 20,4 9,3 18 10 O - 20 60
16.06.2019 08:00:00 20,0 8,1 15 8 O - 20 60
16.06.2019 07:00:00 19,0 8,7 18 10 O - 20 6
16.06.2019 06:00:00 18,0 8,8 22 12 O - 20 -
16.06.2019 05:00:00 17,0 6,5 18 10 O - 15 -
16.06.2019 04:00:00 17,8 12,9 24 13 O - 10 -
16.06.2019 03:00:00 17,6 9,8 28 15 O - 10 -
16.06.2019 02:00:00 20,0 9,3 18 10 O - 10 -
16.06.2019 01:00:00 19,4 7,2 11 6 O - 10 -
16.06.2019 00:00:00 20,0 6,0 13 7 O - 10 -
15.06.2019 23:00:00 19,8 8,5 18 10 O - 10 -
15.06.2019 22:00:00 20,0 9,0 15 8 O - 10 -
15.06.2019 21:00:00 20,0 11,5 18 10 O - 15 -
15.06.2019 20:00:00 22,0 13,9 11 6 O - 20 12
15.06.2019 19:00:00 23,0 19,4 18 10 O - 20 60
15.06.2019 18:00:00 24,0 13,8 18 10 O - 20 60
15.06.2019 17:00:00 24,0 15,2 15 8 O - 20 60
15.06.2019 16:00:00 24,0 12,0 11 6 OSO - 20 30
15.06.2019 15:00:00 23,0 13,2 9 5 O - 20 36
15.06.2019 14:00:00 23,4 13,3 8 4 OSO - 20 60
15.06.2019 13:00:00 23,0 12,9 9 5 O - 20 60
15.06.2019 12:00:00 23,0 10,8 9 5 O - 20 60
15.06.2019 11:00:00 22,0 5,0 0 0 N - 20 36
15.06.2019 10:00:00 21,0 4,1 21 11 NNE - 20 24
15.06.2019 09:00:00 21,0 5,4 21 11 NNE - 20 48
15.06.2019 08:00:00 20,6 5,4 26 14 NNE - 20 60
15.06.2019 07:00:00 20,2 3,0 28 15 N - 20 -
15.06.2019 06:00:00 19,6 2,9 24 13 NNE - 20 -
15.06.2019 05:00:00 19,0 2,4 18 10 N - 10 -
15.06.2019 04:00:00 19,4 2,7 26 14 N - 10 -
15.06.2019 03:00:00 19,0 3,2 26 14 NE - 10 -
15.06.2019 02:00:00 19,0 4,4 37 20 NE - 10 -
15.06.2019 01:00:00 19,0 6,2 28 15 NE - 10 -
15.06.2019 00:00:00 19,0 8,9 28 15 NNE - 10 -

tt = Temperatura
td = dewpoint
ff = velocità del vento
dd = direzione del vento
ppp = reduced air pressure
vv = visibility
sd = ore di luce

Stazioni seguenti

WeatherPro
AMSI
MeteoEarth